Regional Weather Roundup
Issued by NWS

Home | Current Version | Previous Version | Graphics & Text | Print | Product List | Glossary On
Versions: 1 2 3 4 5 6 7 8 9 10 11 12 13 14 15 16 17 18 19 20 21 22 23 24 25 26 27 28 29 30 31 32 33 34 35 36 37 38 39 40 41 42 43 44 45 46 47 48 49 50
000
ASUS43 KOAX 271402
RWRNE

WEATHER ROUNDUP FOR NEBRASKA
NATIONAL WEATHER SERVICE OMAHA NE
900 AM CDT MON JUL 27 2015

NOTES: SATELLITE DATA IS BEING USED TO AUGMENT CLOUD COVER ABOVE
       12000 FEET.
       "FAIR" INDICATES FEW OR NO CLOUDS BELOW 12,000 FEET WITH NO
       SIGNIFICANT WEATHER AND/OR OBSTRUCTIONS TO VISIBILITY.

  * THESE STATIONS DO NOT REPORT WEATHER SUCH AS RAIN...SNOW OR FOG.

NEZ001>004-019>022-054>056-271500-
NEBRASKA PANHANDLE

CITY           SKY/WX    TMP DP  RH WIND       PRES   REMARKS
SCOTTSBLUFF    SUNNY     67  61  81 E12       29.88F
ALLIANCE       SUNNY     66  62  87 SE6       29.90F
CHADRON        SUNNY     75  61  61 SW6       29.82F
KIMBALL        SUNNY     66  60  82 SW8       29.94S
SIDNEY         SUNNY     68  64  87 W6        29.92S
$$

NEZ057>060-069>072-079>082-271500-
SOUTHWEST NEBRASKA

CITY           SKY/WX    TMP DP  RH WIND       PRES   REMARKS
NORTH PLATTE   SUNNY     71  64  78 SE3       29.91R
IMPERIAL       SUNNY     68  65  90 SE9       29.90F
MCCOOK         MOSUNNY   72  66  81 SE5       29.91R
$$

NEZ005>010-023>029-035>040-094-271500-
NORTH CENTRAL NEBRASKA

CITY           SKY/WX    TMP DP  RH WIND       PRES   REMARKS
VALENTINE      SUNNY     74  61  63 SE14      29.89S
AINSWORTH      SUNNY     73  65  75 SE12      29.91S
BROKEN BOW     MOSUNNY   74  67  78 SE9       29.93R
O`NEILL        PTSUNNY   75  70  83 W3        29.91R
ORD            PTSUNNY   76  66  71 SE7       29.90S
$$

NEZ041-046>049-061>064-073>077-083>087-271500-
SOUTH CENTRAL NEBRASKA

CITY           SKY/WX    TMP DP  RH WIND       PRES   REMARKS
GRAND ISLAND   PTSUNNY   76  68  76 E6        29.91S
AURORA         PTSUNNY   75  71  86 CALM      29.91S
HASTINGS       PTSUNNY   77  66  68 SE3       29.91R
KEARNEY *      PTSUNNY   73  64  73 SE5       29.91R
$$

NEZ011>018-030>034-042>045-271500-
NORTHEAST NEBRASKA

CITY           SKY/WX    TMP DP  RH WIND       PRES   REMARKS
NORFOLK        CLOUDY    79  74  84 E7        29.87S
BLAIR          CLOUDY    79  75  88 S6        29.90R
COLUMBUS *     PTSUNNY   81  72  74 CALM      29.89F
FREMONT        PTSUNNY   82  76  82 SE6       29.88R
TEKAMAH        CLOUDY    79  76  90 E7        29.87F
WAYNE          CLOUDY    77  72  84 SE8       29.90F
$$

NEZ050>053-065>068-078-088>093-271500-
SOUTHEAST NEBRASKA

CITY           SKY/WX    TMP DP  RH WIND       PRES   REMARKS
LINCOLN        CLOUDY    78  70  76 S5        29.90F
OMAHA EPPLEY   CLOUDY    79  76  90 SW7       29.89R THUNDER
FALLS CITY     CLOUDY    81  75  82 CALM      29.91R
$$

NEZ044-045-051>053-067-271500-
OMAHA AREA

CITY           SKY/WX    TMP DP  RH WIND       PRES   REMARKS
OMAHA EPPLEY   CLOUDY    79  76  90 SW7       29.89R THUNDER
BLAIR          CLOUDY    79  75  88 S6        29.90R
FREMONT        PTSUNNY   82  76  82 SE6       29.88R
OFFUTT AFB     CLOUDY    79  76  91 S5        29.89R
$$



USA.gov is the U.S. government's official web portal to all federal, state and local government web resources and services.